Skip to main content



苗栗縣空氣品質測站-每小時
苗栗縣空氣品質測站-每小時


欄位說明 : SiteId;SiteName;County;ItemId;ItemName;ItemEngName;ItemUnit;MonitorDate;Concentration

SiteId SiteName County ItemId ItemName ItemEngName ItemUnit MonitorDate Concentration
27 三義 苗栗縣 144 小時風向值 WD_HR degrees 2021/3/29 下午 10:00:00 200
27 三義 苗栗縣 143 小時風速值 WS_HR m/sec 2021/3/29 下午 10:00:00 4.3
27 三義 苗栗縣 38 相對濕度 RH % 2021/3/29 下午 10:00:00 78
27 三義 苗栗縣 33 細懸浮微粒 PM2.5 μg/m3 2021/3/29 下午 10:00:00 26
27 三義 苗栗縣 32 降雨強度 RAIN_INT 2021/3/29 下午 10:00:00 0
27 三義 苗栗縣 23 雨量 RAINFALL mm 2021/3/29 下午 10:00:00 0
27 三義 苗栗縣 22 導電度 RAIN_COND μmho/cm 2021/3/29 下午 10:00:00 0
27 三義 苗栗縣 21 酸雨 PH_RAIN pH 2021/3/29 下午 10:00:00 0
27 三義 苗栗縣 14 溫度 AMB_TEMP 2021/3/29 下午 10:00:00 22.6
27 三義 苗栗縣 11 風向 WIND_DIREC degrees 2021/3/29 下午 10:00:00 196
27 三義 苗栗縣 10 風速 WIND_SPEED m/sec 2021/3/29 下午 10:00:00 4.6
27 三義 苗栗縣 7 二氧化氮 NO2 ppb 2021/3/29 下午 10:00:00 10.4
27 三義 苗栗縣 6 一氧化氮 NO ppb 2021/3/29 下午 10:00:00 1.6
27 三義 苗栗縣 5 氮氧化物 NOx ppb 2021/3/29 下午 10:00:00 12
27 三義 苗栗縣 4 懸浮微粒 PM10 μg/m3 2021/3/29 下午 10:00:00 45
27 三義 苗栗縣 3 臭氧 O3 ppb 2021/3/29 下午 10:00:00 22.5
27 三義 苗栗縣 2 一氧化碳 CO ppm 2021/3/29 下午 10:00:00 0.3
27 三義 苗栗縣 1 二氧化硫 SO2 ppb 2021/3/29 下午 10:00:00 3
26 苗栗 苗栗縣 144 小時風向值 WD_HR degrees 2021/3/29 下午 10:00:00 49
26 苗栗 苗栗縣 143 小時風速值 WS_HR m/sec 2021/3/29 下午 10:00:00 1
26 苗栗 苗栗縣 38 相對濕度 RH % 2021/3/29 下午 10:00:00 90
26 苗栗 苗栗縣 33 細懸浮微粒 PM2.5 μg/m3 2021/3/29 下午 10:00:00 54
26 苗栗 苗栗縣 23 雨量 RAINFALL mm 2021/3/29 下午 10:00:00 0
26 苗栗 苗栗縣 14 溫度 AMB_TEMP 2021/3/29 下午 10:00:00 23
26 苗栗 苗栗縣 11 風向 WIND_DIREC degrees 2021/3/29 下午 10:00:00 31
26 苗栗 苗栗縣 10 風速 WIND_SPEED m/sec 2021/3/29 下午 10:00:00 1
26 苗栗 苗栗縣 7 二氧化氮 NO2 ppb 2021/3/29 下午 10:00:00 17.9
26 苗栗 苗栗縣 6 一氧化氮 NO ppb 2021/3/29 下午 10:00:00 1.8
26 苗栗 苗栗縣 5 氮氧化物 NOx ppb 2021/3/29 下午 10:00:00 19.7

  上一頁       下一頁